Zurück zum Katalog

PSLV R/B

AktivSSO
NORAD 38757·ROCKET BODY·🇮🇳 India

Gestartet Sep 9, 2012 von Satish Dhawan Space Centre

Loading…

Nächste Überflüge (nächste 24 Stunden)

TLE

AktuellSource: Space-Track

Epoche: Sep 14, 2026, 01:12 UTC

1 38757U 12047C   26257.05039310  .00000474  00000-0  64788-4 0  9999
2 38757  98.2994 105.1075 0006649  76.5969 283.5984 14.83448411756059

Verfolge PSLV R/B in Echtzeit mit AllMySat

Download on the App Store